Preston, Minnesota, United States (55965)
Lat: 43.67N, Lon: 92.08W
Wx Zone: MNZ095
Local Info
Past Weather Observations for Today

NOTE: This archive is for the closest National Weather Service station to Preston. Information may differ from the station used for current weather conditions.

Click here for Long-term Archive

Time Weather Temperature Dewpoint Humidity Pressure Winds Precip Visibility
17:36
Overcast
Fog And Mist
57°F / 14°C 55°F / 13°C 94% 29.92 in
(1013 mb)
SSE 3.5 mph
(SSE 6 kph)
- 5SM
17:15
Overcast
Fog And Mist
57°F / 14°C 55°F / 13°C 94% 29.92 in
(1013 mb)
SW 3.5 mph
(SW 6 kph)
- 5SM
16:55
Overcast
57°F / 14°C 55°F / 13°C 94% 29.92 in
(1013 mb)
SW 4.6 mph
(SW 7 kph)
- 7SM
16:36
Overcast
57°F / 14°C 55°F / 13°C 94% 29.92 in
(1013 mb)
SW 5.8 mph
(SW 9 kph)
- 7SM
16:15
Overcast
57°F / 14°C 55°F / 13°C 94% 29.92 in
(1013 mb)
SW 4.6 mph
(SW 7 kph)
- 7SM
15:55
Overcast
57°F / 14°C 55°F / 13°C 94% 29.89 in
(1012 mb)
SW 6.9 mph
(SW 11 kph)
- 7SM
15:36
Overcast
57°F / 14°C 55°F / 13°C 94% 29.89 in
(1012 mb)
SW 6.9 mph
(SW 11 kph)
- 7SM
15:15
Overcast
57°F / 14°C 54°F / 12°C 88% 29.89 in
(1012 mb)
SW 5.8 mph
(SW 9 kph)
- 7SM
14:55
Overcast
57°F / 14°C 54°F / 12°C 88% 29.89 in
(1012 mb)
SSE 6.9 mph
(SSE 11 kph)
- 7SM
14:36
Overcast
57°F / 14°C 54°F / 12°C 88% 29.89 in
(1012 mb)
SW 8.1 mph
(SW 13 kph)
- 7SM
14:15
Overcast
55°F / 13°C 54°F / 12°C 94% 29.89 in
(1012 mb)
SW 5.8 mph
(SW 9 kph)
- 7SM
13:56
Overcast
Fog And Mist
55°F / 13°C 54°F / 12°C 94% 29.89 in
(1012 mb)
SW 10.4 mph
(SW 17 kph)
- 5SM
13:35
Overcast
Fog And Mist
55°F / 13°C 54°F / 12°C 94% 29.89 in
(1012 mb)
SSE 9.2 mph
(SSE 15 kph)
- 4SM
13:15
Overcast
Fog And Mist
55°F / 13°C 54°F / 12°C 94% 29.89 in
(1012 mb)
S 12.7 mph
(S 20 kph)
- 4SM
12:56
Overcast
Fog And Mist
55°F / 13°C 54°F / 12°C 94% 29.92 in
(1013 mb)
SSE 15 mph
(SSE 24 kph)
- 4SM
12:35
Overcast
Fog And Mist
55°F / 13°C 54°F / 12°C 94% 29.92 in
(1013 mb)
SW 10.4 mph
(SW 17 kph)
- 2SM
12:15
Overcast
Fog And Mist
57°F / 14°C 54°F / 12°C 88% 29.92 in
(1013 mb)
SSE 12.7 mph
(SSE 20 kph)
- 3SM
11:55
Overcast
57°F / 14°C 55°F / 13°C 94% 29.92 in
(1013 mb)
S 12.7 mph
(S 20 kph)
- 7SM
11:35
Overcast
59°F / 15°C 55°F / 13°C 88% 29.92 in
(1013 mb)
SSE 11.5 mph
(SSE 19 kph)
- 10SM
11:15
Overcast
59°F / 15°C 55°F / 13°C 88% 29.95 in
(1014 mb)
SSE 11.5 mph
(SSE 19 kph)
- 10SM
10:55
Overcast
59°F / 15°C 55°F / 13°C 88% 29.92 in
(1013 mb)
S 10.4 mph
(S 17 kph)
- 7SM
10:35
Partly Cloudy
59°F / 15°C 54°F / 12°C 82% 29.92 in
(1013 mb)
SSE 13.8 mph
(SSE 22 kph)
- 7SM
10:15
Mostly Cloudy
57°F / 14°C 55°F / 13°C 94% 29.95 in
(1014 mb)
SSE 8.1 mph
(SSE 13 kph)
- 7SM
09:56
Partly Cloudy
55°F / 13°C 55°F / 13°C 100% 29.95 in
(1014 mb)
SSE 12.7 mph
(SSE 20 kph)
- 7SM
09:35
Mostly Cloudy
54°F / 12°C 54°F / 12°C 100% 29.95 in
(1014 mb)
SSE 9.2 mph
(SSE 15 kph)
- 7SM
09:15
Partly Cloudy
54°F / 12°C 52°F / 11°C 94% 29.95 in
(1014 mb)
SSE 8.1 mph
(SSE 13 kph)
- 7SM
08:56
Partly Cloudy
Fog And Mist
52°F / 11°C 52°F / 11°C 100% 29.98 in
(1015 mb)
SSE 8.1 mph
(SSE 13 kph)
- 4SM
08:35
Overcast
Fog And Mist
50°F / 10°C 50°F / 10°C 100% 29.98 in
(1015 mb)
SSE 6.9 mph
(SSE 11 kph)
- 2 1/2SM
08:15
Overcast
Fog
50°F / 10°C 48°F / 9°C 94% 29.98 in
(1015 mb)
SSE 8.1 mph
(SSE 13 kph)
- 1/4SM
07:56
Overcast
Fog
48°F / 9°C 48°F / 9°C 100% 29.98 in
(1015 mb)
SSE 8.1 mph
(SSE 13 kph)
- M1/4SM
07:35
Overcast
Fog
48°F / 9°C 46°F / 8°C 94% 29.98 in
(1015 mb)
SSE 6.9 mph
(SSE 11 kph)
- M1/4SM
07:15
Overcast
Fog
46°F / 8°C 46°F / 8°C 100% 29.98 in
(1015 mb)
SSE 8.1 mph
(SSE 13 kph)
- M1/4SM
06:56
Overcast
Fog
46°F / 8°C 46°F / 8°C 100% 29.98 in
(1015 mb)
SSE 8.1 mph
(SSE 13 kph)
- M1/4SM
06:35
Overcast
Fog
46°F / 8°C 46°F / 8°C 100% 29.98 in
(1015 mb)
SSE 8.1 mph
(SSE 13 kph)
- M1/4SM
06:15
Overcast
Fog
46°F / 8°C 46°F / 8°C 100% 30.01 in
(1016 mb)
S 6.9 mph
(S 11 kph)
- 1/4SM
05:55
Overcast
Fog
46°F / 8°C 46°F / 8°C 100% 29.98 in
(1015 mb)
SSE 9.2 mph
(SSE 15 kph)
- 1/4SM
05:35
Overcast
Fog
46°F / 8°C 46°F / 8°C 100% 30.01 in
(1016 mb)
SSE 6.9 mph
(SSE 11 kph)
- 1/4SM
05:16
Overcast
Fog
46°F / 8°C 46°F / 8°C 100% 30.01 in
(1016 mb)
S 5.8 mph
(S 9 kph)
- 1/4SM
04:56
Overcast
Fog
46°F / 8°C 46°F / 8°C 100% 30.01 in
(1016 mb)
SSE 6.9 mph
(SSE 11 kph)
- 1/4SM
04:35
Overcast
Fog
46°F / 8°C 46°F / 8°C 100% 30.01 in
(1016 mb)
S 5.8 mph
(S 9 kph)
- 1/4SM
04:15
Overcast
Fog
46°F / 8°C 46°F / 8°C 100% 30.01 in
(1016 mb)
SSE 6.9 mph
(SSE 11 kph)
- 1/4SM
03:56
Overcast
Fog
46°F / 8°C 46°F / 8°C 100% 30.01 in
(1016 mb)
S 8.1 mph
(S 13 kph)
- 1/4SM
03:35
Overcast
Fog
48°F / 9°C 46°F / 8°C 94% 30.01 in
(1016 mb)
S 6.9 mph
(S 11 kph)
- 1/4SM
03:15
Overcast
Fog
48°F / 9°C 46°F / 8°C 94% 30.01 in
(1016 mb)
S 8.1 mph
(S 13 kph)
- 1/4SM
02:56
Overcast
Fog
48°F / 9°C 48°F / 9°C 100% 30.01 in
(1016 mb)
S 8.1 mph
(S 13 kph)
- 1/4SM
02:35
Overcast
Fog
48°F / 9°C 48°F / 9°C 100% 30.01 in
(1016 mb)
S 9.2 mph
(S 15 kph)
- 1/4SM
02:15
Overcast
Fog
48°F / 9°C 48°F / 9°C 100% 30.01 in
(1016 mb)
S 8.1 mph
(S 13 kph)
- 1/4SM
01:56
Overcast
Fog
48°F / 9°C 48°F / 9°C 100% 30.01 in
(1016 mb)
S 5.8 mph
(S 9 kph)
- 1/4SM
01:35
Overcast
Fog
48°F / 9°C 48°F / 9°C 100% 30.04 in
(1017 mb)
SSE 5.8 mph
(SSE 9 kph)
- 1/4SM
01:15
Overcast
Fog
48°F / 9°C 48°F / 9°C 100% 30.04 in
(1017 mb)
SSE 8.1 mph
(SSE 13 kph)
- 1/4SM
00:55
Overcast
Fog
48°F / 9°C 48°F / 9°C 100% 30.04 in
(1017 mb)
SSE 6.9 mph
(SSE 11 kph)
- 1/4SM
00:35
Overcast
Fog
48°F / 9°C 48°F / 9°C 100% 30.04 in
(1017 mb)
SSE 6.9 mph
(SSE 11 kph)
- 1/4SM
00:15
Overcast
Fog
48°F / 9°C 48°F / 9°C 100% 30.04 in
(1017 mb)
S 5.8 mph
(S 9 kph)
- 1/4SM
Time Weather Temperature Dewpoint Humidity Pressure Winds Precip Visibility


Weather for websites

WeatherForYou.com, LLC is not responsible for any damages or problems caused by this service. Current weather conditions are obtained from the closest station including government and personal stations which may have varying degrees of accuracy. Weather forecasts are derived from the NOAA NDFD. Like all things, this site belongs to Jesus Christ... He just trusts me to maintain it. If you have any questions or comments email webmaster@weatherforyou.com

Copyright © 2014, WeatherForYou.com LLC. All rights reserved.